[[{"header":{"parameterUnit":"m.s-1","parameterCategory":1,"la1":30.2991,"la2":30.254,"lo1":-89.0895,"lo2":-89.0444,"dy":0.0017,"dx":0.0017,"nx":28,"ny":28,"refTime":"2025-12-16T03:00:00:Z","depth":0,"parameterNumber":2,"parameterNumberName":"U-component_of_WINDS"},"data":[0,0,0,0,0,0,0,0,0,0,0,0,0,0,0,0,0,0,0,0,0,0,0,0,0,0,0,0,0,0,0,0,0,0,0,0,0,0,0,0,0,0,0,0,0,0,0,0,0,0,0,0,0,0,0,0,0,0,-3.1321,-3.1321,0,-3.1333,-3.1333,-3.1333,-3.1279,-3.1277,-3.1276,-3.1274,-3.1288,-3.1289,-3.1291,0,0,0,0,0,0,0,0,0,0,0,0,0,-3.1254,-3.1255,-3.1321,-3.1321,-3.1321,-3.1333,-3.1333,-3.1333,-3.1279,-3.1277,-3.1275,-3.1274,-3.1287,-3.1289,-3.1291,0,0,0,0,0,0,0,0,0,0,0,0,0,-3.1276,-3.1256,-3.1321,-3.1296,-3.1293,-3.1332,-3.1333,-3.1333,-3.128,-3.1277,-3.1275,-3.1273,-3.1286,-3.1289,-3.1292,-3.1356,0,0,-3.13,-3.1301,0,0,0,0,0,0,0,0,-3.1275,-3.1279,-3.1299,-3.1297,-3.1295,-3.1302,-3.1314,-3.1341,-3.128,-3.1285,-3.1274,-3.1272,-3.1294,-3.1296,-3.1304,-3.1356,-3.1357,-3.13,-3.1302,-3.1303,-3.1304,0,0,0,0,0,0,0,-3.1273,-3.1278,-3.1325,-3.1299,-3.1297,-3.1285,-3.1285,-3.1319,-3.1303,-3.1284,-3.128,-3.1283,-3.1293,-3.1301,-3.1304,-3.1357,-3.13,-3.1303,-3.1304,-3.1305,-3.1464,-3.1466,0,0,0,0,0,0,-3.1275,-3.1277,-3.1325,-3.1326,-3.1279,-3.1288,-3.1288,-3.1302,-3.1302,-3.13,-3.1285,-3.128,-3.1298,-3.1301,-3.1304,-3.1378,-3.1303,-3.1306,-3.1307,-3.1461,-3.1464,-3.1467,0,0,0,0,0,0,-3.1274,-3.128,-3.1324,-3.13,-3.1305,-3.1291,-3.1307,-3.1304,-3.1312,-3.1302,-3.1299,-3.1296,-3.1296,-3.13,-3.1343,-3.1378,-3.1307,-3.1309,-3.1458,-3.1462,-3.1466,-3.1529,0,0,0,0,0,0,-3.1272,-3.128,-3.1303,-3.1301,-3.1306,-3.1363,-3.1309,-3.1305,-3.1316,-3.1311,-3.1312,-3.131,-3.1294,-3.134,-3.1346,-3.1381,-3.1311,-3.1455,-3.146,-3.1465,-3.1523,-3.1534,-3.1543,0,0,0,0,0,-3.127,-3.132,-3.1304,-3.131,-3.1335,-3.1365,-3.1368,-3.1349,-3.132,-3.1343,-3.1338,-3.131,-3.1374,-3.1344,-3.1351,-3.1387,-3.1453,-3.1459,-3.1464,-3.1519,-3.1532,-3.1543,0,0,0,0,0,0,-3.1326,-3.1319,-3.1302,-3.1353,-3.136,-3.1356,-3.1385,-3.1363,-3.1379,-3.1373,-3.1348,-3.1349,-3.1397,-3.1397,-3.1364,-3.145,-3.1408,-3.1416,-3.1447,-3.146,-3.147,-3.1468,-3.1314,0,0,0,0,0,-3.1345,-3.1369,-3.1362,-3.1408,-3.1412,-3.1399,-3.1411,-3.1395,-3.1402,-3.1404,-3.1402,-3.141,-3.1431,-3.1446,-3.1466,-3.1524,-3.1524,-3.1553,-3.1563,-3.1571,-3.1577,-3.1608,-3.1621,-3.1486,-3.1486,-3.1486,0,0,-3.1383,-3.1382,-3.1399,-3.1419,-3.1423,-3.1449,-3.1401,-3.1431,-3.145,-3.1409,-3.1449,-3.1448,-3.1455,-3.1507,-3.1529,-3.1508,-3.1615,-3.1578,-3.1585,-3.1586,-3.1615,-3.1628,-3.1639,-3.149,-3.149,-3.1489,0,0,-3.1465,-3.1467,-3.1505,-3.1511,-3.1517,-3.1508,-3.1517,-3.1517,-3.1515,-3.1555,-3.1525,-3.1549,-3.1587,-3.1593,-3.1601,-3.169,-3.1665,-3.1697,-3.1748,-3.1779,-3.179,-3.1799,-3.1829,-3.1841,-3.1704,-3.1704,-3.1704,0,-3.1511,-3.1548,-3.1528,-3.156,-3.157,-3.1535,-3.1574,-3.158,-3.1593,-3.1601,-3.1578,-3.1626,-3.1628,-3.1681,-3.1702,-3.1711,-3.1721,-3.1695,-3.179,-3.1799,-3.1807,-3.1836,-3.1848,-3.1707,-3.1707,-3.1707,-3.1706,0,-3.1605,-3.1632,-3.1662,-3.1675,-3.1689,-3.1725,-3.171,-3.1727,-3.1712,-3.1706,-3.1748,-3.1751,-3.177,-3.1782,-3.1767,-3.1833,-3.1819,-3.1794,-3.1751,-3.1824,-3.1851,-3.1862,-3.1713,-3.1711,-3.171,-3.1709,0,0,-3.1719,-3.1722,-3.1734,-3.174,-3.1746,-3.1766,-3.1801,-3.182,-3.1835,-3.1847,-3.1875,-3.1909,-3.1886,-3.1895,-3.1882,-3.1909,-3.1978,-3.188,-3.1879,-3.1897,-3.205,-3.2068,-3.2081,-3.1963,-3.1965,-3.1967,-3.2049,0,-3.1798,-3.1856,-3.1841,-3.1899,-3.1924,-3.1893,-3.1923,-3.1931,-3.1927,-3.1948,-3.1944,-3.1969,-3.1936,-3.1942,-3.1968,-3.1964,-3.2008,-3.1958,-3.1989,-3.199,-3.1985,-3.2095,-3.2114,-3.2191,-3.206,-3.2061,-3.2063,0,-3.1898,-3.1913,-3.1974,-3.1977,-3.1986,-3.2014,-3.2031,-3.2052,-3.206,-3.2056,-3.2068,-3.2049,-3.2085,-3.2044,-3.2093,-3.2059,-3.2072,-3.2072,-3.2075,-3.2075,-3.2029,-3.2096,-3.2215,-3.2226,-3.2079,-3.2078,-3.2077,0,-3.1973,-3.2009,-3.205,-3.2057,-3.2061,-3.2081,-3.2085,-3.2091,-3.2104,-3.212,-3.2128,-3.2149,-3.2159,-3.2175,-3.2163,-3.2135,-3.2214,-3.2172,-3.2211,-3.2211,-3.2226,-3.2225,-3.2346,-3.2238,-3.2238,-3.2238,-3.2237,0,-3.2062,-3.21,-3.2084,-3.2109,-3.2152,-3.2134,-3.2177,-3.2177,-3.2184,-3.2209,-3.2185,-3.2209,-3.2192,-3.2215,-3.2207,-3.2248,-3.2253,-3.2251,-3.2247,-3.2251,-3.2252,-3.2257,-3.2251,-3.2241,-3.224,-3.2239,-3.2239,0,-3.2152,-3.2143,-3.2186,-3.2188,-3.2189,-3.222,-3.2222,-3.2246,-3.2242,-3.2274,-3.2281,-3.2274,-3.23,-3.229,-3.2319,-3.2313,-3.2365,-3.2356,-3.2362,-3.2358,-3.2397,-3.2393,-3.2524,-3.2541,-3.2424,-3.2425,-3.2426,0,-3.2208,-3.2237,-3.2242,-3.2257,-3.2262,-3.2287,-3.23,-3.2286,-3.2301,-3.2314,-3.2337,-3.2361,-3.2379,-3.2423,-3.2421,-3.2443,-3.2433,-3.2478,-3.2436,-3.2439,-3.2432,-3.2429,-3.2432,-3.2485,-3.2487,-3.2488,-3.2489,0,-3.2308,-3.2303,-3.2323,-3.2342,-3.2359,-3.2373,-3.2386,-3.24,-3.2386,-3.2405,-3.2432,-3.2446,-3.2476,-3.25,-3.252,-3.2524,-3.2504,-3.2503,-3.2512,-3.2515,-3.2517,-3.2515,-3.2382,-3.2499,-3.2498,-3.2497,-3.2496,-3.2496,-3.2381,-3.2405,-3.2413,-3.2437,-3.2445,-3.2458,-3.248,-3.248,-3.2501,-3.2524,-3.2515,-3.2545,-3.2556,-3.2581,-3.2588,-3.2612,-3.2595,-3.2609,-3.2613,-3.2616,-3.262,-3.2515,-3.2616,-3.2616,-3.2616,-3.2616,-3.2615,0,-3.2478,-3.2483,-3.2505,-3.2523,-3.2542,-3.2523,-3.2537,-3.2554,-3.2581,-3.2592,-3.2611,-3.2643,-3.2667,-3.2668,-3.2691,-3.2711,-3.2702,-3.2717,-3.2714,-3.2716,-3.2635,-3.2623,-3.2724,-3.2724,-3.2724,-3.2724,-3.2724,-3.2724,-3.2531,-3.2571,-3.2567,-3.2611,-3.2615,-3.2645,-3.2654,-3.2667,-3.2675,-3.2711,-3.2731,-3.2732,-3.274,-3.2763,-3.2785,-3.2785,-3.2794,-3.2812,-3.2808,-3.2732,-3.2721,-3.2711,-3.27,-3.2815,-3.2815,-3.2887,-3.2887,-3.2888]},{"header":{"parameterUnit":"m.s-1","parameterCategory":1,"la1":30.2991,"la2":30.254,"lo1":-89.0895,"lo2":-89.0444,"dy":0.0017,"dx":0.0017,"nx":28,"ny":28,"refTime":"2025-12-16T03:00:00:Z","depth":0,"parameterNumber":3,"parameterNumberName":"V-component_of_WINDS"},"data":[0,0,0,0,0,0,0,0,0,0,0,0,0,0,0,0,0,0,0,0,0,0,0,0,0,0,0,0,0,0,0,0,0,0,0,0,0,0,0,0,0,0,0,0,0,0,0,0,0,0,0,0,0,0,0,0,0,0,1.7816,1.7816,0,1.7801,1.7801,1.7801,1.7823,1.7824,1.7824,1.7825,1.7805,1.7804,1.7803,0,0,0,0,0,0,0,0,0,0,0,0,0,1.786,1.7859,1.7816,1.7816,1.7816,1.7801,1.7801,1.7801,1.7823,1.7824,1.7825,1.7826,1.7806,1.7804,1.7803,0,0,0,0,0,0,0,0,0,0,0,0,0,1.7842,1.7859,1.7816,1.7825,1.7826,1.7801,1.7801,1.7801,1.7823,1.7824,1.7825,1.7826,1.7806,1.7804,1.7802,1.7767,0,0,1.7797,1.7796,0,0,0,0,0,0,0,0,1.7843,1.7841,1.7824,1.7824,1.7825,1.7815,1.7809,1.7789,1.7822,1.7824,1.7825,1.7827,1.7807,1.7805,1.78,1.7766,1.7765,1.7796,1.7795,1.7795,1.7794,0,0,0,0,0,0,0,1.7844,1.7841,1.781,1.7824,1.7824,1.7829,1.7827,1.7806,1.7809,1.7824,1.7825,1.7823,1.7808,1.7802,1.78,1.7765,1.7797,1.7795,1.7794,1.7793,1.7702,1.7701,0,0,0,0,0,0,1.7845,1.7842,1.7811,1.781,1.7837,1.7827,1.7826,1.7817,1.7809,1.7809,1.7822,1.7824,1.7804,1.7802,1.7799,1.7758,1.7795,1.7793,1.7792,1.7704,1.7702,1.7701,0,0,0,0,0,0,1.7846,1.7842,1.7811,1.7827,1.7823,1.7825,1.7815,1.7816,1.781,1.7808,1.7809,1.7816,1.7805,1.7802,1.7775,1.7757,1.7792,1.779,1.7705,1.7703,1.7702,1.7674,0,0,0,0,0,0,1.7847,1.7842,1.783,1.7826,1.7822,1.7789,1.7814,1.7815,1.7807,1.781,1.7802,1.7802,1.7806,1.7778,1.7774,1.7755,1.7789,1.7707,1.7704,1.7702,1.7677,1.7672,1.7668,0,0,0,0,0,1.7849,1.7822,1.7829,1.7825,1.7807,1.7788,1.7786,1.7792,1.7806,1.7793,1.7792,1.7802,1.776,1.7775,1.777,1.7751,1.7708,1.7705,1.7702,1.7679,1.7673,1.7668,0,0,0,0,0,0,1.7821,1.7821,1.7829,1.7801,1.7794,1.7792,1.7775,1.7785,1.7773,1.7776,1.7783,1.7781,1.7753,1.7749,1.7766,1.7717,1.7736,1.7732,1.772,1.7714,1.771,1.7711,1.7787,0,0,0,0,0,1.7812,1.7798,1.7799,1.7773,1.777,1.7773,1.7765,1.7771,1.7764,1.7761,1.7758,1.7749,1.7735,1.7724,1.771,1.7677,1.7675,1.7661,1.7656,1.7653,1.7649,1.7631,1.7625,1.7691,1.7692,1.7692,0,0,1.7792,1.7791,1.7781,1.7768,1.7763,1.7748,1.7771,1.7753,1.7741,1.7758,1.7733,1.7731,1.7722,1.7692,1.7679,1.7688,1.763,1.7649,1.7646,1.7644,1.7627,1.7621,1.7615,1.769,1.769,1.769,0,0,1.7749,1.7747,1.7725,1.7721,1.7715,1.7718,1.7713,1.7709,1.7709,1.7685,1.7697,1.7682,1.7656,1.765,1.7643,1.7598,1.7607,1.7593,1.7568,1.7551,1.7546,1.7541,1.7525,1.7519,1.759,1.759,1.759,0,1.7725,1.7704,1.7713,1.7695,1.7688,1.7705,1.7683,1.7678,1.7667,1.7661,1.7672,1.7641,1.7636,1.7605,1.7594,1.7588,1.7582,1.7594,1.7546,1.7541,1.7537,1.7522,1.7516,1.7588,1.7588,1.7588,1.7589,0,1.7674,1.7659,1.7643,1.7634,1.7625,1.7605,1.7611,1.7601,1.7607,1.7609,1.7584,1.7579,1.7564,1.7558,1.7563,1.7527,1.7534,1.7545,1.7565,1.7529,1.7515,1.7509,1.7586,1.7586,1.7587,1.7587,0,0,1.7612,1.761,1.7604,1.76,1.7595,1.7583,1.7564,1.7552,1.7543,1.7535,1.7518,1.7496,1.7508,1.75,1.7505,1.749,1.7455,1.7503,1.7503,1.7494,1.7415,1.7406,1.7399,1.7461,1.746,1.7459,1.7416,0,1.7569,1.7537,1.7546,1.7514,1.75,1.7515,1.7498,1.7493,1.7494,1.7481,1.7481,1.7466,1.7482,1.7477,1.7463,1.7462,1.7439,1.7465,1.7445,1.7444,1.7446,1.7392,1.7382,1.7341,1.741,1.7409,1.7409,0,1.7514,1.7506,1.7473,1.7472,1.7466,1.7451,1.7441,1.7429,1.7423,1.7424,1.7416,1.7424,1.7404,1.7425,1.7397,1.7414,1.7406,1.7405,1.7403,1.7401,1.7424,1.7388,1.7329,1.7322,1.74,1.7401,1.7401,0,1.7472,1.7453,1.7431,1.7428,1.7425,1.7414,1.7412,1.7408,1.74,1.739,1.7385,1.7373,1.7366,1.7356,1.736,1.7374,1.7331,1.7351,1.7331,1.733,1.732,1.7321,1.7259,1.7316,1.7316,1.7316,1.7316,0,1.7423,1.7402,1.7413,1.7399,1.7376,1.7385,1.7362,1.7362,1.7358,1.7343,1.7356,1.7342,1.7348,1.7335,1.7338,1.7314,1.731,1.731,1.7311,1.7309,1.7309,1.7304,1.7306,1.7314,1.7315,1.7315,1.7315,0,1.7372,1.7378,1.7355,1.7356,1.7355,1.7338,1.7338,1.7324,1.7327,1.7309,1.7305,1.7307,1.7292,1.7296,1.7278,1.728,1.725,1.7255,1.7253,1.7254,1.7233,1.7235,1.7165,1.7156,1.7219,1.7218,1.7218,0,1.734,1.7325,1.7324,1.7316,1.7314,1.7301,1.7294,1.7303,1.7294,1.7287,1.7274,1.7261,1.725,1.7224,1.7224,1.7211,1.7215,1.7191,1.7213,1.7211,1.7214,1.7215,1.7213,1.7186,1.7186,1.7185,1.7185,0,1.7283,1.7287,1.7277,1.7268,1.726,1.7253,1.7247,1.7239,1.7247,1.7237,1.7223,1.7214,1.7198,1.7183,1.7171,1.7168,1.7177,1.7178,1.7173,1.717,1.717,1.7169,1.7241,1.7179,1.718,1.718,1.7181,1.7181,1.7241,1.7228,1.7226,1.7214,1.7211,1.7205,1.7193,1.7195,1.7183,1.7171,1.7177,1.716,1.7154,1.7139,1.7135,1.7121,1.713,1.7121,1.7119,1.7117,1.7115,1.7172,1.7119,1.7119,1.7119,1.7119,1.7119,0,1.7184,1.7184,1.7173,1.7165,1.7156,1.7168,1.7162,1.7153,1.7138,1.7133,1.7123,1.7106,1.7093,1.7092,1.7079,1.7068,1.7072,1.7064,1.7065,1.7064,1.7108,1.7114,1.7061,1.7061,1.7061,1.7061,1.7061,1.7061,1.7154,1.7133,1.7137,1.7115,1.7114,1.7099,1.7095,1.7089,1.7085,1.7067,1.7056,1.7056,1.7053,1.704,1.7028,1.7028,1.7022,1.7013,1.7014,1.7055,1.7061,1.7066,1.7072,1.7011,1.7011,1.6971,1.6971,1.6971]}]]